GAP921 RPLL-RPVA

Flight info

Callsign GAP921
Flight time 0h 52m
Altitude 35000
Route IPATA2R IPATA B462 ARREX ARREX2R
Aircraft A320/M-SDE3FGHIRWY/LB1

Departure

Time 2026-04-20 12:29
Airport Ninoy Aquino International Airport (RPLL)

Arrival

Time 2026-04-20 13:21
Airport Daniel Z. Romualdez Airport (RPVA)
Time Latitude Longitude Altitude Speed Heading
2026-04-20 12:29 14.41709 121.34204 12531 ft 327 kts 138°
2026-04-20 12:29 14.39941 121.35717 13177 ft 330 kts 138°
2026-04-20 12:29 14.38182 121.37223 13794 ft 333 kts 138°
2026-04-20 12:30 14.36392 121.38756 14404 ft 336 kts 139°
2026-04-20 12:30 14.34581 121.40308 14981 ft 339 kts 139°
2026-04-20 12:30 14.32764 121.41866 15532 ft 342 kts 139°
2026-04-20 12:30 14.30923 121.43442 16069 ft 345 kts 139°
2026-04-20 12:31 14.29075 121.45023 16586 ft 347 kts 139°
2026-04-20 12:31 14.27209 121.46621 17101 ft 350 kts 139°
2026-04-20 12:31 14.25321 121.48235 17605 ft 352 kts 139°
2026-04-20 12:31 14.23440 121.49844 18095 ft 355 kts 139°
2026-04-20 12:32 14.21544 121.51466 18587 ft 356 kts 140°
2026-04-20 12:32 14.19613 121.53117 19069 ft 359 kts 140°
2026-04-20 12:32 14.17699 121.54754 19523 ft 361 kts 140°
2026-04-20 12:32 14.15750 121.56420 19985 ft 363 kts 140°
2026-04-20 12:33 14.13827 121.58064 20431 ft 365 kts 140°
2026-04-20 12:33 14.11854 121.59749 20862 ft 367 kts 140°
2026-04-20 12:33 14.09881 121.61435 21279 ft 369 kts 140°
2026-04-20 12:33 14.07912 121.63116 21711 ft 371 kts 140°
2026-04-20 12:34 14.05905 121.64831 22132 ft 373 kts 140°
2026-04-20 12:34 14.03923 121.66523 22563 ft 374 kts 140°
2026-04-20 12:34 14.01901 121.68250 22967 ft 377 kts 141°
2026-04-20 12:34 13.99888 121.69969 23357 ft 379 kts 141°
2026-04-20 12:35 13.97846 121.71713 23739 ft 382 kts 141°
2026-04-20 12:35 13.95808 121.73454 24113 ft 384 kts 141°
2026-04-20 12:35 13.93724 121.75233 24485 ft 387 kts 141°
2026-04-20 12:35 13.91647 121.77003 24846 ft 390 kts 141°
2026-04-20 12:36 13.89543 121.78797 25205 ft 392 kts 141°
2026-04-20 12:36 13.87513 121.80642 25544 ft 396 kts 137°
2026-04-20 12:36 13.85537 121.82674 25883 ft 399 kts 134°
2026-04-20 12:36 13.83702 121.84811 26215 ft 402 kts 131°
2026-04-20 12:37 13.81897 121.87016 26543 ft 405 kts 131°
2026-04-20 12:37 13.80077 121.89253 26871 ft 408 kts 131°
2026-04-20 12:37 13.78247 121.91499 27194 ft 410 kts 131°
2026-04-20 12:37 13.76410 121.93753 27513 ft 412 kts 131°
2026-04-20 12:38 13.74574 121.96005 27828 ft 415 kts 131°
2026-04-20 12:38 13.72702 121.98299 28137 ft 417 kts 131°
2026-04-20 12:38 13.70847 122.00571 28430 ft 420 kts 131°
2026-04-20 12:38 13.69594 122.02106 28627 ft 421 kts 131°
2026-04-20 12:39 13.63239 122.09884 29706 ft 427 kts 132°
2026-04-20 12:39 13.61343 122.12202 30021 ft 429 kts 132°
2026-04-20 12:40 13.59405 122.14568 30374 ft 429 kts 133°
2026-04-20 12:40 13.57485 122.16914 30655 ft 431 kts 133°
2026-04-20 12:40 13.55547 122.19281 30951 ft 433 kts 133°
2026-04-20 12:40 13.53602 122.21655 31243 ft 435 kts 133°
2026-04-20 12:41 13.51650 122.24037 31532 ft 436 kts 133°
2026-04-20 12:41 13.49705 122.26411 31813 ft 438 kts 133°
2026-04-20 12:41 13.47746 122.28801 32091 ft 439 kts 133°
2026-04-20 12:41 13.45762 122.31220 32369 ft 441 kts 133°
2026-04-20 12:42 13.43791 122.33626 32652 ft 442 kts 133°
2026-04-20 12:42 13.41820 122.36027 32925 ft 444 kts 133°
2026-04-20 12:42 13.39814 122.38470 33220 ft 445 kts 133°
2026-04-20 12:42 13.37838 122.40877 33504 ft 447 kts 133°
2026-04-20 12:43 13.35824 122.43329 33786 ft 448 kts 133°
2026-04-20 12:43 13.33829 122.45759 34062 ft 449 kts 133°
2026-04-20 12:43 13.31796 122.48233 34322 ft 450 kts 133°
2026-04-20 12:43 13.29787 122.50678 34571 ft 451 kts 133°
2026-04-20 12:44 13.27768 122.53136 34836 ft 451 kts 133°
2026-04-20 12:44 13.23704 122.58078 34869 ft 452 kts 133°
2026-04-20 12:45 13.19679 122.62971 34872 ft 452 kts 133°
2026-04-20 12:45 13.15620 122.67902 34877 ft 452 kts 133°
2026-04-20 12:46 13.11556 122.72839 34882 ft 452 kts 133°
2026-04-20 12:46 13.07510 122.77750 34878 ft 452 kts 133°
2026-04-20 12:47 13.03456 122.82667 34881 ft 451 kts 133°
2026-04-20 12:47 12.99410 122.87572 34884 ft 451 kts 133°
2026-04-20 12:48 12.95359 122.92479 34884 ft 451 kts 133°
2026-04-20 12:48 12.91321 122.97369 34883 ft 450 kts 133°
2026-04-20 12:49 12.87262 123.02284 34883 ft 450 kts 133°
2026-04-20 12:49 12.83200 123.07197 34884 ft 451 kts 133°
2026-04-20 12:50 12.79158 123.12083 34882 ft 451 kts 133°
2026-04-20 12:50 12.75101 123.16988 34882 ft 451 kts 133°
2026-04-20 12:51 12.71049 123.21880 34882 ft 450 kts 133°
2026-04-20 12:51 12.67017 123.26747 34879 ft 450 kts 133°
2026-04-20 12:52 12.62972 123.31628 34880 ft 449 kts 133°
2026-04-20 12:52 12.58942 123.36488 34884 ft 449 kts 133°
2026-04-20 12:53 12.54878 123.41388 34880 ft 449 kts 133°
2026-04-20 12:53 12.50841 123.46252 34873 ft 449 kts 133°
2026-04-20 12:54 12.46820 123.51096 34876 ft 449 kts 133°
2026-04-20 12:54 12.42752 123.55998 34873 ft 449 kts 132°
2026-04-20 12:55 12.38735 123.60835 34869 ft 449 kts 132°
2026-04-20 12:55 12.34693 123.65736 34873 ft 449 kts 132°
2026-04-20 12:56 12.30731 123.70627 34726 ft 450 kts 132°
2026-04-20 12:56 12.28715 123.73118 33882 ft 452 kts 131°
2026-04-20 12:56 12.26731 123.75568 33128 ft 451 kts 131°
2026-04-20 12:56 12.24744 123.78024 32657 ft 442 kts 131°
2026-04-20 12:57 12.22811 123.80414 32245 ft 435 kts 132°
2026-04-20 12:57 12.20878 123.82800 31778 ft 430 kts 131°
2026-04-20 12:57 12.18997 123.85120 31276 ft 426 kts 131°
2026-04-20 12:57 12.17112 123.87444 30749 ft 423 kts 131°
2026-04-20 12:58 12.15251 123.89738 30211 ft 421 kts 131°
2026-04-20 12:58 12.13371 123.92055 29654 ft 419 kts 131°
2026-04-20 12:58 12.11513 123.94344 29097 ft 417 kts 131°
2026-04-20 12:58 12.09682 123.96601 28549 ft 416 kts 131°
2026-04-20 12:59 12.07842 123.98869 28013 ft 414 kts 131°
2026-04-20 12:59 12.06010 124.01126 27537 ft 410 kts 131°
2026-04-20 12:59 12.04200 124.03355 27096 ft 405 kts 131°
2026-04-20 12:59 12.02421 124.05545 26658 ft 401 kts 131°
2026-04-20 13:00 12.00642 124.07736 26248 ft 396 kts 131°
2026-04-20 13:00 11.98890 124.09894 25842 ft 391 kts 131°
2026-04-20 13:00 11.97178 124.12002 25433 ft 387 kts 131°
2026-04-20 13:00 11.95463 124.14113 25028 ft 382 kts 131°
2026-04-20 13:01 11.93776 124.16188 24627 ft 378 kts 131°
2026-04-20 13:01 11.92119 124.18227 24231 ft 374 kts 130°
2026-04-20 13:01 11.90457 124.20271 23834 ft 370 kts 130°
2026-04-20 13:01 11.88816 124.22289 23435 ft 367 kts 130°
2026-04-20 13:02 11.87196 124.24278 23048 ft 363 kts 130°
2026-04-20 13:02 11.85590 124.26251 22667 ft 360 kts 130°
2026-04-20 13:02 11.83978 124.28225 22280 ft 357 kts 130°
2026-04-20 13:02 11.82407 124.30148 21887 ft 355 kts 130°
2026-04-20 13:03 11.81633 124.31097 21684 ft 354 kts 130°
2026-04-20 13:03 11.80045 124.33042 21255 ft 353 kts 130°
2026-04-20 13:03 11.78487 124.34952 20823 ft 352 kts 130°
2026-04-20 13:03 11.76935 124.36857 20387 ft 351 kts 130°
2026-04-20 13:04 11.75368 124.38779 19948 ft 350 kts 129°
2026-04-20 13:04 11.73813 124.40686 19511 ft 349 kts 129°
2026-04-20 13:04 11.72257 124.42594 19068 ft 348 kts 129°
2026-04-20 13:04 11.70713 124.44488 18632 ft 347 kts 129°
2026-04-20 13:05 11.69190 124.46354 18201 ft 346 kts 129°
2026-04-20 13:05 11.67653 124.48238 17765 ft 345 kts 129°
2026-04-20 13:05 11.66111 124.50127 17330 ft 344 kts 129°
2026-04-20 13:05 11.64592 124.51990 16903 ft 344 kts 129°
2026-04-20 13:06 11.63060 124.53870 16457 ft 344 kts 129°
2026-04-20 13:06 11.61491 124.55698 15985 ft 344 kts 135°
2026-04-20 13:06 11.59681 124.57330 15500 ft 340 kts 140°
2026-04-20 13:06 11.57895 124.58823 15040 ft 330 kts 140°
2026-04-20 13:07 11.56148 124.60287 14606 ft 323 kts 140°
2026-04-20 13:07 11.54439 124.61745 14154 ft 318 kts 140°
2026-04-20 13:07 11.52750 124.63201 13717 ft 314 kts 140°
2026-04-20 13:07 11.51100 124.64634 13303 ft 310 kts 140°
2026-04-20 13:08 11.49466 124.66061 12894 ft 307 kts 140°
2026-04-20 13:08 11.47837 124.67485 12493 ft 305 kts 139°
2026-04-20 13:08 11.46237 124.68884 12101 ft 303 kts 139°
2026-04-20 13:08 11.44652 124.70273 11717 ft 300 kts 139°
2026-04-20 13:09 11.43063 124.71667 11348 ft 298 kts 138°
2026-04-20 13:09 11.41503 124.73037 10980 ft 297 kts 138°
2026-04-20 13:09 11.39924 124.74423 10605 ft 297 kts 138°
2026-04-20 13:09 11.38349 124.75804 10229 ft 297 kts 138°
2026-04-20 13:10 11.36817 124.77149 10059 ft 288 kts 137°
2026-04-20 13:10 11.35312 124.78471 9909 ft 282 kts 138°
2026-04-20 13:10 11.33813 124.79787 9550 ft 282 kts 137°
2026-04-20 13:10 11.32341 124.81078 9202 ft 281 kts 137°
2026-04-20 13:11 11.30854 124.82383 8851 ft 281 kts 137°
2026-04-20 13:11 11.29363 124.83689 8499 ft 280 kts 137°
2026-04-20 13:11 11.27954 124.84923 8164 ft 279 kts 137°
2026-04-20 13:11 11.26386 124.86076 7935 ft 274 kts 151°
2026-04-20 13:12 11.24610 124.86742 7666 ft 274 kts 164°
2026-04-20 13:12 11.22738 124.87172 7334 ft 273 kts 166°
2026-04-20 13:12 11.20860 124.87565 7005 ft 273 kts 166°
2026-04-20 13:12 11.19018 124.87953 6688 ft 271 kts 166°
2026-04-20 13:13 11.17175 124.88350 6373 ft 270 kts 165°
2026-04-20 13:13 11.15338 124.88754 6062 ft 269 kts 165°
2026-04-20 13:13 11.13510 124.89160 5748 ft 267 kts 165°
2026-04-20 13:13 11.11675 124.89568 5462 ft 264 kts 165°
2026-04-20 13:14 11.09910 124.89961 5119 ft 254 kts 165°
2026-04-20 13:14 11.08215 124.90337 4824 ft 245 kts 165°
2026-04-20 13:14 11.06558 124.90706 4611 ft 239 kts 164°
2026-04-20 13:14 11.05040 124.91250 4348 ft 227 kts 142°
2026-04-20 13:15 11.03976 124.92429 3989 ft 228 kts 113°
2026-04-20 13:15 11.03579 124.93973 3660 ft 225 kts 92°
2026-04-20 13:15 11.03500 124.95554 3375 ft 223 kts 91°
2026-04-20 13:15 11.03422 124.97109 3339 ft 222 kts 92°
2026-04-20 13:16 11.03336 124.98640 3269 ft 209 kts 92°
2026-04-20 13:16 11.03302 125.00083 3240 ft 201 kts 81°
2026-04-20 13:16 11.03948 125.01293 3196 ft 196 kts 41°
2026-04-20 13:16 11.05185 125.01726 3039 ft 183 kts
2026-04-20 13:17 11.06392 125.01763 2894 ft 164 kts
2026-04-20 13:17 11.07019 125.01783 2814 ft 155 kts
2026-04-20 13:17 11.08203 125.01834 2667 ft 151 kts
2026-04-20 13:18 11.09229 125.01891 2416 ft 146 kts
2026-04-20 13:18 11.10240 125.01952 2215 ft 144 kts
2026-04-20 13:18 11.11238 125.02018 2030 ft 143 kts
2026-04-20 13:18 11.12199 125.02079 1824 ft 133 kts
2026-04-20 13:19 11.13131 125.02140 1655 ft 132 kts
2026-04-20 13:19 11.14049 125.02202 1487 ft 133 kts
2026-04-20 13:19 11.14988 125.02265 1310 ft 134 kts
2026-04-20 13:19 11.15914 125.02327 1135 ft 134 kts
2026-04-20 13:20 11.16862 125.02391 953 ft 134 kts
2026-04-20 13:20 11.17797 125.02454 773 ft 135 kts
2026-04-20 13:20 11.18732 125.02518 592 ft 135 kts
2026-04-20 13:20 11.19677 125.02595 430 ft 135 kts
2026-04-20 13:21 11.20614 125.02631 283 ft 135 kts
2026-04-20 13:21 11.21552 125.02692 123 ft 134 kts
2026-04-20 13:21 11.22471 125.02755 20 ft 118 kts
2026-04-20 13:21 11.23004 125.02791 19 ft 42 kts
2026-04-20 13:22 11.23197 125.02808 18 ft 16 kts 356°
2026-04-20 13:22 11.23251 125.02808 18 ft 5 kts 134°
2026-04-20 13:22 11.23188 125.02805 18 ft 11 kts 188°
2026-04-20 13:22 11.23104 125.02797 18 ft 12 kts 184°
2026-04-20 13:23 11.23013 125.02792 18 ft 13 kts 183°
2026-04-20 13:23 11.22916 125.02786 19 ft 14 kts 184°
2026-04-20 13:23 11.22817 125.02779 19 ft 12 kts 184°
2026-04-20 13:23 11.22767 125.02745 19 ft 8 kts 242°
2026-04-20 13:24 11.22737 125.02701 19 ft 6 kts 209°
2026-04-20 13:24 11.22694 125.02695 19 ft 6 kts 183°
2026-04-20 13:24 11.22649 125.02689 19 ft 5 kts 224°
2026-04-20 13:24 11.22659 125.02662 19 ft 4 kts 349°
2026-04-20 13:25 11.22681 125.02657 19 ft 1 kts 318°
2026-04-20 13:25 11.22683 125.02653 19 ft 0 kts 300°
2026-04-20 13:25 11.22685 125.02651 19 ft 0 kts 304°